Voltar ao catálogo

CZ-6A DEB

AtivoPO
NORAD 60683·DEBRIS·🇨🇳 China

Lançado Aug 6, 2024 de Taiyuan Satellite Launch Center

Loading…

Próximas Passagens (próximas 24 horas)

TLE

AtualizadoSource: Space-Track

Época: Sep 14, 2026, 10:59 UTC

1 60683U 24140CL  26257.45780089  .00000927  00000-0  37560-3 0  9999
2 60683  88.9971 263.9163 0024747 268.6865  91.1494 14.26799966109177

Acompanhe CZ-6A DEB em tempo real com AllMySat

Download on the App Store